Welcome to Northern Hawkes Bay. New Zealand.
PWS Header
      nz Flag



Hit Counter


W3C Valid W3C Valid logo


    Wairoa

Select any of the Stations below to visit their websites.










Historic Data from Weather Underground
Select the location of interest below. Wairoa is the default. Please have patience, this Data is slow to load in.
Northern Hawkes Bay Historical Data
Daily Summary for April 21, 2017 Units:  English    Metric   Both
« Previous Day
Next Day »
Daily Weekly Monthly Yearly Custom
  High: Low: Average:
Temperature: 71.8 °F 46.2 °F 54.1 °F
Dew Point: 48.4 °F 42.4 °F 45.7 °F
Humidity: 99% 37% 76%
Wind Speed: 8.3mph 0mph 2.1mph
Wind Gust: 14.5mph - -
Wind- - WNW
Pressure: 30.4 in 30.3 in -
Precipitation: 0 in    
Historical Graphs
 
 
Tabular Data for April 21, 2017
Time Temperature Dew Point Pressure Wind Wind Speed Wind Gust Humidity Rainfall Rate (Hourly) solar
00:01 51.1 °F 44.1 °F 30.3 in NW 3.1 mph 7.6 mph 77% 0 in 0 W/m2
00:06 50.9 °F 44.1 °F 30.3 in NW 3.8 mph 7.6 mph 77% 0 in 0 W/m2
00:11 50.9 °F 44.1 °F 30.3 in NW 2.2 mph 6.9 mph 77% 0 in 0 W/m2
00:16 50.9 °F 44.2 °F 30.3 in NW 3.1 mph 6 mph 78% 0 in 0 W/m2
00:21 50.7 °F 44.1 °F 30.3 in NW 3.8 mph 6 mph 78% 0 in 0 W/m2
00:26 50.7 °F 44.1 °F 30.3 in NW 3.1 mph 6.9 mph 78% 0 in 0 W/m2
00:31 50.5 °F 43.9 °F 30.3 in NW 5.4 mph 6.9 mph 78% 0 in 0 W/m2
00:36 50.5 °F 43.9 °F 30.3 in NNW 3.8 mph 6.9 mph 78% 0 in 0 W/m2
00:42 50.5 °F 43.9 °F 30.3 in NW 4.5 mph 6.9 mph 78% 0 in 0 W/m2
00:48 50.5 °F 43.5 °F 30.3 in NW 1.6 mph 6.9 mph 77% 0 in 0 W/m2
00:53 50.5 °F 43.5 °F 30.3 in NW 2.2 mph 5.4 mph 77% 0 in 0 W/m2
00:58 50.4 °F 43.3 °F 30.3 in NNW 3.8 mph 5.4 mph 77% 0 in 0 W/m2
01:03 50.2 °F 43.5 °F 30.3 in NNW 2.2 mph 4.5 mph 78% 0 in 0 W/m2
01:08 49.6 °F 43.7 °F 30.3 in NNW 1.6 mph 4.5 mph 80% 0 in 0 W/m2
01:13 49.3 °F 43.7 °F 30.3 in NW 2.2 mph 4.5 mph 81% 0 in 0 W/m2
01:18 49.1 °F 43.9 °F 30.3 in NNW 0.7 mph 4.5 mph 82% 0 in 0 W/m2
01:23 48.9 °F 43.7 °F 30.3 in NNW 3.1 mph 5.4 mph 82% 0 in 0 W/m2
01:28 48.9 °F 43.7 °F 30.3 in NNW 3.1 mph 5.4 mph 82% 0 in 0 W/m2
01:33 48.9 °F 43.7 °F 30.3 in NNW 3.1 mph 5.4 mph 82% 0 in 0 W/m2
01:38 49.1 °F 43.5 °F 30.3 in NNW 2.2 mph 6.9 mph 81% 0 in 0 W/m2
01:43 49.1 °F 43.2 °F 30.3 in NNW 3.1 mph 6.9 mph 80% 0 in 0 W/m2
01:48 49.1 °F 43.2 °F 30.3 in Calm   6.9 mph 80% 0 in 0 W/m2
01:53 48.7 °F 43 °F 30.3 in Calm   4.5 mph 80% 0 in 0 W/m2
01:58 48.4 °F 42.4 °F 30.3 in Calm     80% 0 in 0 W/m2
02:03 48.2 °F 42.6 °F 30.3 in Calm   2.2 mph 81% 0 in 0 W/m2
02:08 48 °F 43.2 °F 30.3 in Calm   3.8 mph 83% 0 in 0 W/m2
02:13 47.7 °F 43.2 °F 30.3 in Calm   3.8 mph 84% 0 in 0 W/m2
02:18 47.5 °F 43 °F 30.3 in Calm   2.2 mph 84% 0 in 0 W/m2
02:23 47.5 °F 43.2 °F 30.3 in North 2.2 mph 3.8 mph 85% 0 in 0 W/m2
02:28 47.7 °F 43.7 °F 30.3 in NNW 0.7 mph 3.8 mph 86% 0 in 0 W/m2
02:33 47.8 °F 43.9 °F 30.3 in NNW 1.6 mph 3.8 mph 86% 0 in 0 W/m2
02:38 48 °F 44.1 °F 30.3 in NW 1.6 mph 6 mph 86% 0 in 0 W/m2
02:43 48.2 °F 43.9 °F 30.3 in NW 3.8 mph 6 mph 85% 0 in 0 W/m2
02:48 48.2 °F 43.5 °F 30.3 in NW 1.6 mph 4.5 mph 84% 0 in 0 W/m2
02:53 48.4 °F 43.9 °F 30.3 in NNW 1.6 mph 5.4 mph 84% 0 in 0 W/m2
02:58 48.4 °F 43.9 °F 30.3 in NNW 2.2 mph 5.4 mph 84% 0 in 0 W/m2
03:03 48.2 °F 43.5 °F 30.3 in NW 2.2 mph 5.4 mph 84% 0 in 0 W/m2
03:08 48.4 °F 43.9 °F 30.3 in NW 1.6 mph 4.5 mph 84% 0 in 0 W/m2
03:13 48.4 °F 43.9 °F 30.3 in Calm   4.5 mph 84% 0 in 0 W/m2
03:18 48.4 °F 43.9 °F 30.3 in Calm   3.8 mph 84% 0 in 0 W/m2
03:23 48.4 °F 43.9 °F 30.3 in Calm   3.8 mph 84% 0 in 0 W/m2
03:28 48.6 °F 44.1 °F 30.3 in Calm     84% 0 in 0 W/m2
03:33 48.7 °F 44.1 °F 30.3 in NNW 1.6 mph 3.1 mph 84% 0 in 0 W/m2
03:38 48.9 °F 44.2 °F 30.3 in NW 3.1 mph 3.8 mph 84% 0 in 0 W/m2
03:43 49.5 °F 44.8 °F 30.3 in NW 0.7 mph 4.5 mph 84% 0 in 0 W/m2
03:48 49.5 °F 44.8 °F 30.3 in NW 2.2 mph 4.5 mph 84% 0 in 0 W/m2
03:53 49.5 °F 44.8 °F 30.3 in Calm   4.5 mph 84% 0 in 0 W/m2
03:58 49.8 °F 45.1 °F 30.3 in NNW 1.6 mph 5.4 mph 84% 0 in 0 W/m2
04:03 49.8 °F 45.1 °F 30.3 in Calm   5.4 mph 84% 0 in 0 W/m2
04:08 49.3 °F 44.8 °F 30.3 in North 2.2 mph 4.5 mph 84% 0 in 0 W/m2
04:13 49.1 °F 44.4 °F 30.3 in North 0.7 mph 4.5 mph 84% 0 in 0 W/m2
04:18 49.1 °F 44.4 °F 30.3 in NNW 3.8 mph 5.4 mph 84% 0 in 0 W/m2
04:23 49.3 °F 45 °F 30.3 in Calm   5.4 mph 85% 0 in 0 W/m2
04:28 49.3 °F 45 °F 30.3 in North 2.2 mph 5.4 mph 85% 0 in 0 W/m2
04:33 49.5 °F 45.1 °F 30.3 in North 1.6 mph 6 mph 85% 0 in 0 W/m2
04:38 49.5 °F 45.1 °F 30.3 in NNW 3.8 mph 6 mph 85% 0 in 0 W/m2
04:43 49.5 °F 45.1 °F 30.3 in NNW 4.5 mph 5.4 mph 85% 0 in 0 W/m2
04:48 49.5 °F 45.1 °F 30.3 in NNW 2.2 mph 6.9 mph 85% 0 in 0 W/m2
04:53 49.5 °F 45.1 °F 30.3 in NW 1.6 mph 6.9 mph 85% 0 in 0 W/m2
04:58 49.5 °F 45.1 °F 30.3 in NW 3.1 mph 5.4 mph 85% 0 in 0 W/m2
05:03 49.6 °F 45.3 °F 30.3 in NNW 3.1 mph 4.5 mph 85% 0 in 0 W/m2
05:08 49.8 °F 45.5 °F 30.3 in NNW 3.1 mph 5.4 mph 85% 0 in 0 W/m2
05:13 50 °F 45.3 °F 30.3 in NNW 1.6 mph 5.4 mph 84% 0 in 0 W/m2
05:30 50 °F 45.3 °F 30.3 in NW 3.1 mph 4.5 mph 84% 0 in 0 W/m2
05:35 50 °F 45.3 °F 30.3 in NW 1.6 mph 4.5 mph 84% 0 in 0 W/m2
05:40 50 °F 45 °F 30.3 in Calm   5.4 mph 83% 0 in 0 W/m2
05:45 50 °F 45 °F 30.3 in Calm   5.4 mph 83% 0 in 0 W/m2
05:50 49.8 °F 45.1 °F 30.3 in NNW 2.2 mph 3.8 mph 84% 0 in 0 W/m2
06:07 50 °F 45.3 °F 30.3 in NNW 3.8 mph 6 mph 84% 0 in 0 W/m2
06:12 50 °F 45.3 °F 30.3 in NNW 3.8 mph 7.6 mph 84% 0 in 0 W/m2
06:17 50 °F 45.3 °F 30.3 in NNW 3.1 mph 7.6 mph 84% 0 in 0 W/m2
06:22 50 °F 45 °F 30.3 in NW 2.2 mph 5.4 mph 83% 0 in 0 W/m2
06:27 50 °F 45 °F 30.3 in NW 3.1 mph 4.5 mph 83% 0 in 0 W/m2
06:32 49.8 °F 45.1 °F 30.3 in NNW 3.8 mph 5.4 mph 84% 0 in 0 W/m2
06:37 49.6 °F 45.3 °F 30.3 in NNW 1.6 mph 6 mph 85% 0 in 0 W/m2
06:42 49.6 °F 45.3 °F 30.3 in Calm   6 mph 85% 0 in 0 W/m2
06:46 49.5 °F 45.1 °F 30.3 in Calm   3.8 mph 85% 0 in 2 W/m2
06:52 49.5 °F 45.1 °F 30.3 in WNW 3.8 mph 5.4 mph 85% 0 in 4 W/m2
06:57 49.5 °F 45.1 °F 30.3 in NW 3.8 mph 7.6 mph 85% 0 in 6 W/m2
07:02 49.8 °F 45.5 °F 30.3 in NNW 1.6 mph 7.6 mph 85% 0 in 9 W/m2
07:06 49.8 °F 45.5 °F 30.3 in NW 1.6 mph 6 mph 85% 0 in 13 W/m2
07:11 50 °F 45.3 °F 30.3 in Calm   5.4 mph 84% 0 in 14 W/m2
07:17 50 °F 45.3 °F 30.3 in NNW 0.7 mph 5.4 mph 84% 0 in 19 W/m2
07:22 50 °F 45.3 °F 30.3 in NW 1.6 mph 3.1 mph 84% 0 in 24 W/m2
07:27 50 °F 45.3 °F 30.3 in NW 3.1 mph 4.5 mph 84% 0 in 29 W/m2
07:32 50 °F 45.7 °F 30.3 in NW 2.2 mph 5.4 mph 85% 0 in 33 W/m2
07:37 50.2 °F 45.5 °F 30.4 in NNW 2.2 mph 5.4 mph 84% 0 in 39 W/m2
07:42 50.4 °F 45.7 °F 30.4 in North 2.2 mph 5.4 mph 84% 0 in 52 W/m2
07:47 50.7 °F 46 °F 30.4 in North 3.8 mph 6 mph 84% 0 in 55 W/m2
07:52 50.7 °F 45.9 °F 30.4 in North 3.1 mph 6 mph 83% 0 in 49 W/m2
07:57 50.7 °F 45.9 °F 30.4 in NNW 2.2 mph 6.9 mph 83% 0 in 66 W/m2
08:01 50.9 °F 45.9 °F 30.4 in North 3.1 mph 6.9 mph 83% 0 in 74 W/m2
08:07 51.1 °F 46 °F 30.4 in North 3.8 mph 6.9 mph 83% 0 in 79 W/m2
08:12 51.3 °F 46.2 °F 30.4 in NNW 2.2 mph 6 mph 83% 0 in 84 W/m2
08:17 51.4 °F 46.6 °F 30.4 in NNW 3.8 mph 6 mph 83% 0 in 91 W/m2
08:22 51.6 °F 46.2 °F 30.4 in North 5.4 mph 6 mph 82% 0 in 97 W/m2
08:26 51.8 °F 46.2 °F 30.4 in North 3.8 mph 6.9 mph 81% 0 in 104 W/m2
08:32 52 °F 46.2 °F 30.4 in NNW 3.8 mph 8.3 mph 81% 0 in 111 W/m2
08:37 52.3 °F 46.4 °F 30.4 in NNW 4.5 mph 8.3 mph 80% 0 in 125 W/m2
08:42 52.7 °F 46.8 °F 30.4 in NNW 3.1 mph 8.3 mph 80% 0 in 124 W/m2
08:47 52.9 °F 46.9 °F 30.4 in NNW 3.1 mph 6.9 mph 80% 0 in 120 W/m2
08:52 53.4 °F 47.1 °F 30.4 in NNW 0.7 mph 6.9 mph 79% 0 in 122 W/m2
08:56 53.4 °F 46.8 °F 30.4 in NNW 3.8 mph 6 mph 78% 0 in 126 W/m2
09:02 53.6 °F 46.2 °F 30.4 in NNW 1.6 mph 6 mph 76% 0 in 125 W/m2
09:07 53.8 °F 46.4 °F 30.4 in NW 4.5 mph 6 mph 76% 0 in 126 W/m2
09:12 53.8 °F 46 °F 30.4 in NW 4.5 mph 6.9 mph 75% 0 in 128 W/m2
09:16 54.1 °F 46.4 °F 30.4 in NNW 3.8 mph 7.6 mph 75% 0 in 130 W/m2
09:22 54.3 °F 46.6 °F 30.4 in NNW 2.2 mph 7.6 mph 75% 0 in 135 W/m2
09:26 54.5 °F 46.4 °F 30.4 in NNW 0.7 mph 6 mph 74% 0 in 141 W/m2
09:32 55 °F 46.9 °F 30.4 in NNW 2.2 mph 5.4 mph 74% 0 in 149 W/m2
09:36 55.2 °F 47.1 °F 30.4 in NNW 2.2 mph 5.4 mph 74% 0 in 164 W/m2
09:41 55.4 °F 47.3 °F 30.4 in North 1.6 mph 5.4 mph 74% 0 in 176 W/m2
09:46 55.6 °F 46.2 °F 30.4 in NNW 3.1 mph 6.9 mph 71% 0 in 179 W/m2
09:52 55.9 °F 46.8 °F 30.4 in Calm   6.9 mph 71% 0 in 181 W/m2
09:57 56.5 °F 47.1 °F 30.4 in NNW 1.6 mph 6 mph 71% 0 in 187 W/m2
10:02 56.5 °F 46.8 °F 30.4 in NNW 3.1 mph 6 mph 70% 0 in 188 W/m2
10:06 56.5 °F 46.8 °F 30.4 in NNW 3.1 mph 7.6 mph 70% 0 in 201 W/m2
10:11 56.7 °F 46.9 °F 30.4 in NNW 3.1 mph 7.6 mph 70% 0 in 213 W/m2
10:16 57.2 °F 47.1 °F 30.4 in NNW 3.1 mph 6.9 mph 69% 0 in 221 W/m2
10:22 58.1 °F 48.4 °F 30.4 in NNW 4.5 mph 6.9 mph 70% 0 in 219 W/m2
10:26 57.7 °F 47.3 °F 30.4 in NW 3.8 mph 6.9 mph 68% 0 in 232 W/m2
10:31 57.9 °F 47.8 °F 30.4 in NNW 3.1 mph 6.9 mph 69% 0 in 230 W/m2
10:37 58.5 °F 47.7 °F 30.4 in NNW 1.6 mph 6 mph 67% 0 in 231 W/m2
10:41 59 °F 47.3 °F 30.4 in NW 2.2 mph 5.4 mph 65% 0 in 234 W/m2
10:47 59.5 °F 47.8 °F 30.4 in Calm   4.5 mph 65% 0 in 235 W/m2
10:52 60.1 °F 46.9 °F 30.4 in Calm   5.4 mph 62% 0 in 249 W/m2
10:56 61.9 °F 47.8 °F 30.4 in WNW 2.2 mph 5.4 mph 60% 0 in 545 W/m2
11:01 63 °F 47.5 °F 30.4 in West 1.6 mph 3.1 mph 57% 0 in 315 W/m2
11:06 62.6 °F 46.8 °F 30.4 in Calm   4.5 mph 56% 0 in 403 W/m2
11:11 62.8 °F 45.3 °F 30.4 in WNW 3.8 mph 5.4 mph 53% 0 in 292 W/m2
11:16 62.2 °F 45.9 °F 30.4 in WNW 3.8 mph 5.4 mph 55% 0 in 254 W/m2
11:21 61.7 °F 45 °F 30.4 in SSW 3.8 mph 6 mph 54% 0 in 281 W/m2
11:27 61.2 °F 45 °F 30.4 in SSW 4.5 mph 7.6 mph 55% 0 in 324 W/m2
11:32 61.5 °F 44.8 °F 30.4 in SW 2.2 mph 7.6 mph 54% 0 in 338 W/m2
11:36 62.1 °F 44.8 °F 30.4 in SW 4.5 mph 8.3 mph 53% 0 in 387 W/m2
11:41 61.3 °F 44.6 °F 30.4 in WSW 3.8 mph 8.3 mph 54% 0 in 178 W/m2
11:46 60.3 °F 44.4 °F 30.4 in SW 3.1 mph 9.2 mph 56% 0 in 114 W/m2
11:52 59.5 °F 44.8 °F 30.4 in SW 3.1 mph 9.8 mph 58% 0 in 122 W/m2
11:56 59.9 °F 45.1 °F 30.4 in SW 5.4 mph 9.8 mph 58% 0 in 422 W/m2
12:01 60.4 °F 45.1 °F 30.4 in SW 8.3 mph 14.5 mph 57% 0 in 457 W/m2
12:06 60.8 °F 44.4 °F 30.4 in SW 3.1 mph 14.5 mph 55% 0 in 473 W/m2
12:11 62.8 °F 46.4 °F 30.4 in SSW 4.5 mph 14.5 mph 55% 0 in 521 W/m2
12:16 63.1 °F 45.1 °F 30.4 in SW 3.1 mph 7.6 mph 52% 0 in 524 W/m2
12:21 63 °F 45.1 °F 30.4 in SW 5.4 mph 9.8 mph 52% 0 in 452 W/m2
12:26 62.8 °F 45.3 °F 30.4 in SW 4.5 mph 9.8 mph 53% 0 in 539 W/m2
12:32 62.4 °F 45.7 °F 30.4 in SW 6.9 mph 12.1 mph 54% 0 in 458 W/m2
12:36 61.9 °F 45.7 °F 30.4 in SW 6.9 mph 12.1 mph 55% 0 in 346 W/m2
12:41 61.7 °F 45.3 °F 30.4 in SW 7.6 mph 10.7 mph 55% 0 in 303 W/m2
12:46 61.3 °F 45 °F 30.4 in SW 5.4 mph 9.8 mph 55% 0 in 332 W/m2
12:51 61.5 °F 45.1 °F 30.4 in SW 3.8 mph 9.8 mph 55% 0 in 326 W/m2
12:56 62.1 °F 45.7 °F 30.4 in SSW 3.8 mph 9.2 mph 55% 0 in 393 W/m2
13:00 62.4 °F 45.7 °F 30.4 in SW 4.5 mph 8.3 mph 54% 0 in 340 W/m2
13:05 62.8 °F 45 °F 30.4 in SW 3.1 mph 7.6 mph 52% 0 in 302 W/m2
13:11 63 °F 45.1 °F 30.4 in SSW 4.5 mph 7.6 mph 52% 0 in 336 W/m2
13:15 62.8 °F 45.3 °F 30.4 in SSW 5.4 mph 8.3 mph 53% 0 in 296 W/m2
13:20 62.1 °F 45.1 °F 30.4 in South 5.4 mph 8.3 mph 54% 0 in 252 W/m2
13:25 62.2 °F 45.3 °F 30.4 in South 3.8 mph 7.6 mph 54% 0 in 376 W/m2
13:30 63 °F 45.1 °F 30.4 in SSW 3.8 mph 8.3 mph 52% 0 in 209 W/m2
13:35 62.1 °F 44.8 °F 30.4 in South 4.5 mph 8.3 mph 53% 0 in 114 W/m2
13:40 61.3 °F 45 °F 30.4 in South 3.8 mph 7.6 mph 55% 0 in 110 W/m2
13:46 60.4 °F 45.1 °F 30.4 in South 3.1 mph 7.6 mph 57% 0 in 119 W/m2
13:50 60.1 °F 45.3 °F 30.4 in South 3.1 mph 6.9 mph 58% 0 in 140 W/m2
13:55 60.1 °F 44.8 °F 30.4 in SSW 4.5 mph 6.9 mph 57% 0 in 149 W/m2
14:01 60.3 °F 45 °F 30.4 in SSW 3.8 mph 6.9 mph 57% 0 in 146 W/m2
14:05 60.3 °F 45 °F 30.4 in SSW 1.6 mph 6 mph 57% 0 in 149 W/m2
14:10 60.3 °F 44.4 °F 30.4 in South 3.1 mph 6 mph 56% 0 in 147 W/m2
14:15 60.3 °F 45.9 °F 30.4 in SSW 1.6 mph 6 mph 59% 0 in 142 W/m2
14:20 60.3 °F 45.3 °F 30.4 in South 3.1 mph 6 mph 58% 0 in 150 W/m2
14:25 60.3 °F 45.9 °F 30.4 in South 2.2 mph 5.4 mph 59% 0 in 164 W/m2
14:30 60.8 °F 45.5 °F 30.4 in South 3.1 mph 5.4 mph 57% 0 in 171 W/m2
14:35 62.6 °F 45.7 °F 30.4 in South 3.1 mph 4.5 mph 54% 0 in 215 W/m2
14:40 64.9 °F 45.9 °F 30.4 in South 3.1 mph 4.5 mph 50% 0 in 203 W/m2
14:45 65.5 °F 46.4 °F 30.4 in South 3.1 mph 5.4 mph 50% 0 in 187 W/m2
14:50 66.6 °F 45.1 °F 30.4 in SSW 3.1 mph 5.4 mph 46% 0 in 127 W/m2
14:56 66.2 °F 44.8 °F 30.4 in SW 2.2 mph 6 mph 46% 0 in 90 W/m2
15:01 68 °F 45.9 °F 30.4 in SW 1.6 mph 6 mph 45% 0 in 82 W/m2
15:06 68.7 °F 45.9 °F 30.4 in SE 0.7 mph 4.5 mph 44% 0 in 112 W/m2
15:11 68 °F 45.9 °F 30.4 in Calm   5.4 mph 45% 0 in 182 W/m2
15:16 69.4 °F 46.6 °F 30.4 in SSE 2.2 mph 5.4 mph 44% 0 in 205 W/m2
15:21 69.6 °F 46.8 °F 30.4 in SE 1.6 mph 3.8 mph 44% 0 in 202 W/m2
15:26 69.4 °F 46 °F 30.4 in SSE 3.1 mph 4.5 mph 43% 0 in 194 W/m2
15:31 69.4 °F 46 °F 30.4 in South 1.6 mph 5.4 mph 43% 0 in 183 W/m2
15:36 68.5 °F 45.1 °F 30.4 in Calm   5.4 mph 43% 0 in 173 W/m2
15:41 70.7 °F 45.9 °F 30.4 in Calm   3.8 mph 41% 0 in 162 W/m2
15:46 71.1 °F 46.2 °F 30.4 in Calm   2.2 mph 41% 0 in 150 W/m2
15:51 71.8 °F 44.1 °F 30.4 in SE 1.6 mph 3.8 mph 37% 0 in 138 W/m2
15:56 70.5 °F 45.1 °F 30.4 in SSE 0.7 mph 3.8 mph 40% 0 in 126 W/m2
16:01 68.7 °F 45.3 °F 30.4 in South 3.1 mph 5.4 mph 43% 0 in 116 W/m2
16:06 67.6 °F 46 °F 30.4 in South 3.1 mph 5.4 mph 46% 0 in 103 W/m2
16:11 67.8 °F 46.9 °F 30.4 in SSE 1.6 mph 4.5 mph 47% 0 in 93 W/m2
16:16 68.2 °F 46 °F 30.4 in Calm   3.8 mph 45% 0 in 86 W/m2
16:21 68.5 °F 46.4 °F 30.4 in Calm   3.1 mph 45% 0 in 82 W/m2
16:26 68.4 °F 46.2 °F 30.4 in SE 1.6 mph 3.1 mph 45% 0 in 81 W/m2
16:31 68 °F 46.6 °F 30.4 in Calm   3.1 mph 46% 0 in 81 W/m2
16:36 69.1 °F 47.5 °F 30.4 in Calm   3.1 mph 46% 0 in 71 W/m2
16:41 69.3 °F 46.9 °F 30.4 in SSE 1.6 mph 3.1 mph 45% 0 in 57 W/m2
16:46 68 °F 45.9 °F 30.4 in SE 0.7 mph 3.1 mph 45% 0 in 50 W/m2
16:51 66.9 °F 46.6 °F 30.4 in Calm   3.1 mph 48% 0 in 44 W/m2
16:56 66.2 °F 46.6 °F 30.4 in Calm   3.1 mph 49% 0 in 40 W/m2
17:01 65.7 °F 47.7 °F 30.4 in Calm     52% 0 in 34 W/m2
17:06 64.9 °F 46.9 °F 30.4 in Calm     52% 0 in 28 W/m2
17:11 63.5 °F 46 °F 30.4 in Calm     53% 0 in 22 W/m2
17:16 62.8 °F 45.9 °F 30.4 in Calm     54% 0 in 15 W/m2
17:21 61.3 °F 45.5 °F 30.4 in Calm     56% 0 in 12 W/m2
17:26 59.7 °F 45.9 °F 30.4 in Calm     60% 0 in 7 W/m2
17:31 58.3 °F 45.9 °F 30.4 in Calm     63% 0 in 4 W/m2
17:36 57.2 °F 45.7 °F 30.4 in Calm     65% 0 in 2 W/m2
17:41 56.3 °F 45.5 °F 30.4 in Calm     67% 0 in 0 W/m2
17:46 55.8 °F 45.3 °F 30.4 in Calm     68% 0 in 0 W/m2
17:47 55.4 °F 45.3 °F 30.4 in Calm     69% 0 in 0 W/m2
17:52 54.7 °F 45.5 °F 30.4 in Calm     71% 0 in 0 W/m2
17:57 54.3 °F 45.5 °F 30.4 in Calm     72% 0 in 0 W/m2
18:02 54 °F 45.5 °F 30.4 in Calm     73% 0 in 0 W/m2
18:07 53.6 °F 45.1 °F 30.4 in Calm     73% 0 in 0 W/m2
18:12 53.2 °F 45.5 °F 30.4 in Calm     75% 0 in 0 W/m2
18:17 52.9 °F 45.9 °F 30.4 in Calm     77% 0 in 0 W/m2
18:22 52.5 °F 46.2 °F 30.4 in Calm     79% 0 in 0 W/m2
18:27 52 °F 46.8 °F 30.4 in Calm     82% 0 in 0 W/m2
18:32 51.6 °F 46.9 °F 30.4 in Calm     84% 0 in 0 W/m2
18:37 51.4 °F 47.1 °F 30.4 in Calm     85% 0 in 0 W/m2
18:42 51.1 °F 46.8 °F 30.4 in Calm     85% 0 in 0 W/m2
18:47 50.9 °F 46.9 °F 30.4 in Calm     86% 0 in 0 W/m2
18:52 50.7 °F 46.8 °F 30.4 in Calm     86% 0 in 0 W/m2
18:57 50.7 °F 46.9 °F 30.4 in Calm     87% 0 in 0 W/m2
19:02 50.5 °F 47.1 °F 30.4 in Calm     88% 0 in 0 W/m2
19:07 50.4 °F 47.1 °F 30.4 in Calm     89% 0 in 0 W/m2
19:12 50.2 °F 47.5 °F 30.4 in Calm     90% 0 in 0 W/m2
19:17 50 °F 47.5 °F 30.4 in Calm     91% 0 in 0 W/m2
19:22 50 °F 47.5 °F 30.4 in Calm     91% 0 in 0 W/m2
19:27 49.8 °F 47.8 °F 30.4 in Calm     93% 0 in 0 W/m2
19:32 49.6 °F 48 °F 30.4 in Calm     94% 0 in 0 W/m2
19:37 49.6 °F 48 °F 30.4 in Calm     94% 0 in 0 W/m2
19:42 49.5 °F 47.8 °F 30.4 in Calm     94% 0 in 0 W/m2
19:47 49.3 °F 47.8 °F 30.4 in Calm     95% 0 in 0 W/m2
19:52 48.9 °F 47.7 °F 30.4 in Calm     95% 0 in 0 W/m2
19:57 48.7 °F 47.5 °F 30.4 in Calm     95% 0 in 0 W/m2
20:02 48.6 °F 47.1 °F 30.4 in Calm     95% 0 in 0 W/m2
20:07 48.4 °F 46.9 °F 30.4 in Calm     95% 0 in 0 W/m2
20:12 48.4 °F 46.9 °F 30.4 in NW 1.6 mph 3.1 mph 95% 0 in 0 W/m2
20:17 48.4 °F 47.3 °F 30.4 in Calm   3.1 mph 96% 0 in 0 W/m2
20:22 48.2 °F 47.1 °F 30.4 in Calm   3.1 mph 96% 0 in 0 W/m2
20:27 48 °F 47.1 °F 30.4 in Calm     97% 0 in 0 W/m2
20:32 48 °F 47.1 °F 30.4 in Calm     97% 0 in 0 W/m2
20:37 47.5 °F 46.9 °F 30.4 in Calm     98% 0 in 0 W/m2
20:42 47.5 °F 46.9 °F 30.4 in Calm     98% 0 in 0 W/m2
20:47 47.5 °F 46.9 °F 30.4 in Calm   0.7 mph 98% 0 in 0 W/m2
20:52 47.5 °F 46.9 °F 30.4 in Calm   0.7 mph 98% 0 in 0 W/m2
20:57 47.5 °F 47.1 °F 30.4 in Calm     99% 0 in 0 W/m2
21:02 47.5 °F 47.1 °F 30.4 in Calm     99% 0 in 0 W/m2
21:07 47.5 °F 47.1 °F 30.4 in North 2.2 mph 3.8 mph 99% 0 in 0 W/m2
21:12 47.5 °F 47.1 °F 30.4 in NNW 3.1 mph 4.5 mph 99% 0 in 0 W/m2
21:17 47.5 °F 47.1 °F 30.4 in NW 3.1 mph 5.4 mph 99% 0 in 0 W/m2
21:22 47.5 °F 47.1 °F 30.4 in NW 3.1 mph 5.4 mph 99% 0 in 0 W/m2
21:27 47.5 °F 47.1 °F 30.4 in NW 2.2 mph 4.5 mph 99% 0 in 0 W/m2
21:32 47.3 °F 46.9 °F 30.4 in NW 2.2 mph 4.5 mph 99% 0 in 0 W/m2
21:37 47.3 °F 46.9 °F 30.4 in NW 3.8 mph 4.5 mph 99% 0 in 0 W/m2
21:42 47.3 °F 46.9 °F 30.4 in NW 1.6 mph 4.5 mph 99% 0 in 0 W/m2
21:47 47.1 °F 46.9 °F 30.4 in NW 3.1 mph 4.5 mph 99% 0 in 0 W/m2
21:52 47.1 °F 46.9 °F 30.4 in NW 3.1 mph 4.5 mph 99% 0 in 0 W/m2
21:57 47.1 °F 46.9 °F 30.4 in NW 2.2 mph 4.5 mph 99% 0 in 0 W/m2
22:02 47.1 °F 46.9 °F 30.4 in NW 0.7 mph 4.5 mph 99% 0 in 0 W/m2
22:07 46.9 °F 46.8 °F 30.4 in Calm   4.5 mph 99% 0 in 0 W/m2
22:12 47.1 °F 46.9 °F 30.4 in NW 1.6 mph 4.5 mph 99% 0 in 0 W/m2
22:17 47.3 °F 46.9 °F 30.4 in NNW 2.2 mph 8.3 mph 99% 0 in 0 W/m2
22:22 47.1 °F 46.9 °F 30.4 in NNW 2.2 mph 8.3 mph 99% 0 in 0 W/m2
22:27 46.9 °F 46.8 °F 30.4 in NW 3.8 mph 5.4 mph 99% 0 in 0 W/m2
22:32 46.9 °F 46.8 °F 30.4 in NW 2.2 mph 4.5 mph 99% 0 in 0 W/m2
22:37 46.8 °F 46.6 °F 30.4 in NW 2.2 mph 5.4 mph 99% 0 in 0 W/m2
22:42 46.8 °F 46.6 °F 30.4 in NNW 4.5 mph 6 mph 99% 0 in 0 W/m2
22:47 46.9 °F 46.8 °F 30.4 in NNW 6 mph 8.3 mph 99% 0 in 0 W/m2
22:52 46.9 °F 46.8 °F 30.4 in NNW 3.8 mph 8.3 mph 99% 0 in 0 W/m2
22:57 46.8 °F 46.6 °F 30.4 in NNW 3.1 mph 8.3 mph 99% 0 in 0 W/m2
23:02 46.8 °F 46.6 °F 30.4 in NNW 3.8 mph 7.6 mph 99% 0 in 0 W/m2
23:07 46.6 °F 46.2 °F 30.4 in NNW 3.8 mph 7.6 mph 99% 0 in 0 W/m2
23:12 46.6 °F 46.2 °F 30.4 in NNW 3.8 mph 6.9 mph 99% 0 in 0 W/m2
23:17 46.6 °F 46.2 °F 30.4 in NNW 3.8 mph 6.9 mph 99% 0 in 0 W/m2
23:22 46.6 °F 46.2 °F 30.4 in NNW 2.2 mph 6.9 mph 99% 0 in 0 W/m2
23:27 46.4 °F 46 °F 30.4 in NNW 2.2 mph 6.9 mph 99% 0 in 0 W/m2
23:32 46.4 °F 46 °F 30.4 in NNW 3.8 mph 6.9 mph 99% 0 in 0 W/m2
23:37 46.4 °F 46 °F 30.4 in North 2.2 mph 6.9 mph 99% 0 in 0 W/m2
23:42 46.4 °F 46 °F 30.4 in North 3.1 mph 6.9 mph 99% 0 in 0 W/m2
23:47 46.4 °F 46 °F 30.4 in NNW 1.6 mph 6.9 mph 99% 0 in 0 W/m2
23:52 46.2 °F 45.3 °F 30.4 in NNW 3.1 mph 6.9 mph 97% 0 in 0 W/m2
23:57 46.2 °F 45.3 °F 30.4 in NNW 1.6 mph 5.4 mph 97% 0 in 0 W/m2
Northern Hawkes Bay. New Zealand Historic Data
Compliments of Weather Underground - 2 mb